UAL721 TBPB-KEWR

Flight info

Callsign UAL721
Flight time N/A
Altitude 38000
Route FOF UA555 ILURI Y185 DONQU DCT MNDEZ L454 LUCTI/M085F380 L454 OKONU/N0487F380 DCT YAALE Y497 SUBBS DCT CYN DCT GXU DCT RBV V249 METRO
Aircraft B78X/H-SDE1E2E3FGHIJ2J3J4J5M1RWXY/LB1D1

Departure

Time N/A
Airport Grantley Adams International Airport (TBPB)

Arrival

Time 2026-04-30 21:27
Airport Newark Liberty International Airport (KEWR)
Time Latitude Longitude Altitude Speed Heading
2026-04-30 17:53 18.64509 -66.09465 37966 ft 452 kts 301°
2026-04-30 17:54 18.72233 -66.19916 37967 ft 453 kts 301°
2026-04-30 17:56 18.87736 -66.40944 37966 ft 454 kts 301°
2026-04-30 17:58 19.00273 -66.54608 37973 ft 464 kts 312°
2026-04-30 18:00 19.19821 -66.72431 37967 ft 464 kts 312°
2026-04-30 18:01 19.32045 -66.83609 37973 ft 464 kts 311°
2026-04-30 18:02 19.46699 -66.97039 37959 ft 465 kts 311°
2026-04-30 18:04 19.61319 -67.10472 37974 ft 464 kts 311°
2026-04-30 18:06 19.80862 -67.28480 37985 ft 464 kts 311°
2026-04-30 18:08 19.97855 -67.44188 37984 ft 463 kts 311°
2026-04-30 18:10 20.17278 -67.62231 37987 ft 463 kts 311°
2026-04-30 18:11 20.34217 -67.78021 37985 ft 463 kts 312°
2026-04-30 18:13 20.46373 -67.89381 37986 ft 464 kts 312°
2026-04-30 18:14 20.58477 -68.00718 37994 ft 463 kts 312°
2026-04-30 18:15 20.74082 -68.12949 37994 ft 485 kts 335°
2026-04-30 18:16 20.87397 -68.15999 37992 ft 491 kts 342°
2026-04-30 18:17 20.94095 -68.17420 37993 ft 490 kts 342°
2026-04-30 18:18 21.04112 -68.19551 37998 ft 489 kts 342°
2026-04-30 18:18 21.10795 -68.20977 37996 ft 489 kts 342°
2026-04-30 18:19 21.17441 -68.22392 37994 ft 488 kts 342°
2026-04-30 18:19 21.24124 -68.23819 37997 ft 488 kts 342°
2026-04-30 18:20 21.30758 -68.25236 37991 ft 488 kts 342°
2026-04-30 18:20 21.37396 -68.26655 37997 ft 488 kts 342°
2026-04-30 18:21 21.44081 -68.28086 38001 ft 488 kts 342°
2026-04-30 18:21 21.50708 -68.29505 37996 ft 487 kts 342°
2026-04-30 18:22 21.57376 -68.30934 37998 ft 487 kts 342°
2026-04-30 18:22 21.67365 -68.33078 38004 ft 487 kts 342°
2026-04-30 18:23 21.73977 -68.34499 38005 ft 487 kts 342°
2026-04-30 18:23 21.80633 -68.35932 38002 ft 488 kts 342°
2026-04-30 18:24 21.90641 -68.38086 38006 ft 487 kts 342°
2026-04-30 18:25 21.97298 -68.39522 38006 ft 487 kts 342°
2026-04-30 18:25 22.07228 -68.41666 37995 ft 487 kts 342°
2026-04-30 18:26 22.17210 -68.43824 38005 ft 487 kts 342°
2026-04-30 18:27 22.27192 -68.45985 38004 ft 487 kts 342°
2026-04-30 18:28 22.37133 -68.48140 38007 ft 487 kts 342°
2026-04-30 18:28 22.47073 -68.50298 38016 ft 486 kts 342°
2026-04-30 18:29 22.60360 -68.53188 38015 ft 486 kts 342°
2026-04-30 18:30 22.73611 -68.56076 38014 ft 486 kts 342°
2026-04-30 18:31 22.83562 -68.58249 38014 ft 486 kts 342°
2026-04-30 18:32 22.93456 -68.60412 38019 ft 485 kts 342°
2026-04-30 18:33 23.03403 -68.62590 38017 ft 484 kts 342°
2026-04-30 18:33 23.13274 -68.64755 38017 ft 484 kts 342°
2026-04-30 18:34 23.23223 -68.66940 38011 ft 484 kts 342°
2026-04-30 18:35 23.29809 -68.68388 38019 ft 484 kts 342°
2026-04-30 18:35 23.36423 -68.69844 38020 ft 483 kts 342°
2026-04-30 18:36 23.46290 -68.72019 38018 ft 483 kts 342°
2026-04-30 18:37 23.56139 -68.74193 38018 ft 483 kts 342°
2026-04-30 18:37 23.62804 -68.75494 38014 ft 484 kts 343°
2026-04-30 18:38 23.69400 -68.76769 38004 ft 484 kts 344°
2026-04-30 18:38 23.76051 -68.78008 38008 ft 483 kts 344°
2026-04-30 18:39 23.82661 -68.79267 38014 ft 482 kts 344°
2026-04-30 18:39 23.89260 -68.80512 38015 ft 482 kts 344°
2026-04-30 18:40 23.95893 -68.81771 38017 ft 482 kts 344°
2026-04-30 18:40 24.02483 -68.83020 38023 ft 481 kts 345°
2026-04-30 18:41 24.09050 -68.84268 38015 ft 482 kts 345°
2026-04-30 18:41 24.15678 -68.85527 38022 ft 482 kts 345°
2026-04-30 18:42 24.22286 -68.86785 38020 ft 482 kts 345°
2026-04-30 18:42 24.32166 -68.88667 38018 ft 481 kts 345°
2026-04-30 18:45 24.68306 -68.95578 38022 ft 479 kts 346°
2026-04-30 18:46 24.73766 -68.96626 38022 ft 479 kts 346°
2026-04-30 18:46 24.81416 -68.98095 38017 ft 478 kts 346°
2026-04-30 18:47 24.86877 -68.99145 38017 ft 478 kts 346°
2026-04-30 18:47 24.94516 -69.00616 38017 ft 478 kts 346°
2026-04-30 18:48 25.00011 -69.01675 38020 ft 478 kts 346°
2026-04-30 18:48 25.06567 -69.02939 38024 ft 477 kts 347°
2026-04-30 18:49 25.13075 -69.04196 38012 ft 477 kts 347°
2026-04-30 18:49 25.19622 -69.05462 38014 ft 476 kts 347°
2026-04-30 18:50 25.26136 -69.06723 38017 ft 477 kts 347°
2026-04-30 18:50 25.32678 -69.07990 38017 ft 476 kts 347°
2026-04-30 18:51 25.39217 -69.09258 38018 ft 476 kts 347°
2026-04-30 18:51 25.45712 -69.10520 38019 ft 475 kts 347°
2026-04-30 18:52 25.52242 -69.11789 38017 ft 475 kts 347°
2026-04-30 18:52 25.58720 -69.13050 38017 ft 475 kts 347°
2026-04-30 18:53 25.65237 -69.14319 38016 ft 475 kts 347°
2026-04-30 18:53 25.71767 -69.15593 38015 ft 474 kts 347°
2026-04-30 18:54 25.78225 -69.16854 38008 ft 474 kts 347°
2026-04-30 18:54 25.81039 -69.17403 38017 ft 474 kts 347°
2026-04-30 18:55 25.86779 -69.18526 38013 ft 473 kts 347°
2026-04-30 18:55 25.96530 -69.20435 38012 ft 473 kts 347°
2026-04-30 18:56 26.06242 -69.22340 38014 ft 473 kts 347°
2026-04-30 18:57 26.15952 -69.24248 38016 ft 473 kts 346°
2026-04-30 18:57 26.22441 -69.25524 38011 ft 473 kts 346°
2026-04-30 18:58 26.32147 -69.27437 38013 ft 473 kts 346°
2026-04-30 18:59 26.41877 -69.29357 38010 ft 473 kts 346°
2026-04-30 19:00 26.54809 -69.31914 38007 ft 473 kts 346°
2026-04-30 19:01 26.67773 -69.34484 38001 ft 473 kts 346°
2026-04-30 19:02 26.77446 -69.36405 38009 ft 472 kts 346°
2026-04-30 19:03 26.90404 -69.38984 38004 ft 472 kts 346°
2026-04-30 19:04 27.03302 -69.41556 38000 ft 472 kts 345°
2026-04-30 19:05 27.16235 -69.44142 38004 ft 472 kts 345°
2026-04-30 19:06 27.29165 -69.46734 37996 ft 473 kts 345°
2026-04-30 19:06 27.38890 -69.48686 37993 ft 473 kts 345°
2026-04-30 19:07 27.48614 -69.50642 38000 ft 474 kts 346°
2026-04-30 19:08 27.61595 -69.53260 37989 ft 474 kts 346°
2026-04-30 19:09 27.71315 -69.55223 37993 ft 474 kts 346°
2026-04-30 19:09 27.77836 -69.56543 37994 ft 475 kts 346°
2026-04-30 19:10 27.90829 -69.59177 37990 ft 474 kts 346°
2026-04-30 19:11 28.00557 -69.61152 37987 ft 474 kts 346°
2026-04-30 19:12 28.07058 -69.62475 37986 ft 473 kts 346°
2026-04-30 19:12 28.13513 -69.63790 37990 ft 472 kts 346°
2026-04-30 19:13 28.26456 -69.66431 37984 ft 471 kts 346°
2026-04-30 19:14 28.32881 -69.67745 37988 ft 470 kts 346°
2026-04-30 19:14 28.39322 -69.69063 37982 ft 470 kts 346°
2026-04-30 19:15 28.45721 -69.70375 37984 ft 469 kts 346°
2026-04-30 19:15 28.55377 -69.72357 37985 ft 468 kts 346°
2026-04-30 19:16 28.61757 -69.73669 37979 ft 467 kts 346°
2026-04-30 19:17 28.71371 -69.75649 37982 ft 467 kts 345°
2026-04-30 19:17 28.80937 -69.77622 37980 ft 466 kts 345°
2026-04-30 19:18 28.90485 -69.79595 37976 ft 465 kts 345°
2026-04-30 19:19 28.96863 -69.80915 37975 ft 465 kts 345°
2026-04-30 19:19 29.06384 -69.82889 37976 ft 465 kts 345°
2026-04-30 19:20 29.12756 -69.84212 37977 ft 465 kts 345°
2026-04-30 19:21 29.22300 -69.86197 37977 ft 465 kts 345°
2026-04-30 19:22 29.35046 -69.88854 37972 ft 465 kts 345°
2026-04-30 19:23 29.54116 -69.92841 37954 ft 465 kts 345°
2026-04-30 19:24 29.63645 -69.94840 37964 ft 465 kts 345°
2026-04-30 19:25 29.79525 -69.98178 37962 ft 464 kts 345°
2026-04-30 19:26 29.92212 -70.00853 37958 ft 463 kts 345°
2026-04-30 19:27 30.01702 -70.02859 37956 ft 463 kts 345°
2026-04-30 19:28 30.11228 -70.04876 37951 ft 463 kts 344°
2026-04-30 19:29 30.23865 -70.07558 37951 ft 462 kts 344°
2026-04-30 19:30 30.36495 -70.10245 37951 ft 461 kts 344°
2026-04-30 19:31 30.49103 -70.12935 37947 ft 460 kts 344°
2026-04-30 19:31 30.58525 -70.14950 37950 ft 459 kts 343°
2026-04-30 19:32 30.64822 -70.16298 37941 ft 459 kts 343°
2026-04-30 19:32 30.71112 -70.17648 37942 ft 459 kts 343°
2026-04-30 19:33 30.77379 -70.18993 37934 ft 459 kts 343°
2026-04-30 19:33 30.83637 -70.20339 37938 ft 459 kts 343°
2026-04-30 19:34 30.89924 -70.21693 37930 ft 459 kts 343°
2026-04-30 19:35 30.99329 -70.23721 37931 ft 459 kts 343°
2026-04-30 19:35 31.05593 -70.25075 37931 ft 459 kts 343°
2026-04-30 19:36 31.11887 -70.26436 37926 ft 460 kts 343°
2026-04-30 19:36 31.21331 -70.28483 37924 ft 461 kts 343°
2026-04-30 19:37 31.26579 -70.29622 37930 ft 460 kts 343°
2026-04-30 19:37 31.33908 -70.31215 37919 ft 460 kts 343°
2026-04-30 19:38 31.39158 -70.32357 37916 ft 460 kts 343°
2026-04-30 19:38 31.45461 -70.33731 37918 ft 460 kts 342°
2026-04-30 19:39 31.51692 -70.35090 37914 ft 461 kts 342°
2026-04-30 19:39 31.57961 -70.36460 37897 ft 462 kts 342°
2026-04-30 19:40 31.64310 -70.37849 37908 ft 461 kts 342°
2026-04-30 19:40 31.70595 -70.39226 37905 ft 461 kts 342°
2026-04-30 19:41 31.76906 -70.40610 37911 ft 461 kts 342°
2026-04-30 19:41 31.83199 -70.41993 37908 ft 460 kts 342°
2026-04-30 19:42 31.89537 -70.43388 37901 ft 460 kts 342°
2026-04-30 19:42 31.95815 -70.44771 37905 ft 459 kts 342°
2026-04-30 19:43 32.02089 -70.46155 37899 ft 458 kts 342°
2026-04-30 19:44 32.11477 -70.48230 37900 ft 457 kts 342°
2026-04-30 19:44 32.17704 -70.49608 37894 ft 457 kts 342°
2026-04-30 19:45 32.23933 -70.50990 37894 ft 457 kts 342°
2026-04-30 19:45 32.30188 -70.52378 37895 ft 458 kts 342°
2026-04-30 19:46 32.36549 -70.53793 37891 ft 458 kts 342°
2026-04-30 19:46 32.42839 -70.55193 37882 ft 459 kts 342°
2026-04-30 19:47 32.49082 -70.56585 37886 ft 459 kts 341°
2026-04-30 19:47 32.55374 -70.57990 37882 ft 459 kts 341°
2026-04-30 19:48 32.61654 -70.59394 37885 ft 459 kts 341°
2026-04-30 19:48 32.67904 -70.60793 37881 ft 459 kts 341°
2026-04-30 19:49 32.74185 -70.62202 37880 ft 458 kts 341°
2026-04-30 19:49 32.83577 -70.64312 37879 ft 458 kts 341°
2026-04-30 19:50 32.89857 -70.65725 37876 ft 458 kts 341°
2026-04-30 19:50 32.96105 -70.67133 37873 ft 458 kts 341°
2026-04-30 19:51 33.02384 -70.68550 37871 ft 458 kts 341°
2026-04-30 19:51 33.08619 -70.69959 37869 ft 458 kts 340°
2026-04-30 19:52 33.14905 -70.71382 37867 ft 459 kts 340°
2026-04-30 19:52 33.21150 -70.72797 37866 ft 458 kts 340°
2026-04-30 19:53 33.27430 -70.74223 37868 ft 458 kts 340°
2026-04-30 19:53 33.33698 -70.75648 37861 ft 458 kts 340°
2026-04-30 19:54 33.39930 -70.77067 37863 ft 458 kts 340°
2026-04-30 19:54 33.46211 -70.78499 37865 ft 457 kts 340°
2026-04-30 19:55 33.52461 -70.79926 37858 ft 457 kts 340°
2026-04-30 19:55 33.58700 -70.81353 37859 ft 457 kts 339°
2026-04-30 19:56 33.64929 -70.82779 37851 ft 456 kts 339°
2026-04-30 19:56 33.71186 -70.84214 37854 ft 456 kts 339°
2026-04-30 19:57 33.77404 -70.85643 37837 ft 457 kts 339°
2026-04-30 19:57 33.83616 -70.87071 37842 ft 456 kts 339°
2026-04-30 19:58 33.89875 -70.88514 37854 ft 456 kts 339°
2026-04-30 19:58 33.96128 -70.89957 37849 ft 457 kts 339°
2026-04-30 19:59 34.02354 -70.91395 37846 ft 457 kts 339°
2026-04-30 20:00 34.11742 -70.93568 37844 ft 457 kts 339°
2026-04-30 20:00 34.17975 -70.95014 37837 ft 457 kts 339°
2026-04-30 20:01 34.27335 -70.97188 37842 ft 457 kts 338°
2026-04-30 20:01 34.33613 -70.98651 37837 ft 458 kts 338°
2026-04-30 20:02 34.42992 -71.00838 37835 ft 459 kts 338°
2026-04-30 20:03 34.52393 -71.03036 37827 ft 460 kts 338°
2026-04-30 20:03 34.58666 -71.04505 37831 ft 461 kts 338°
2026-04-30 20:04 34.65003 -71.05992 37829 ft 463 kts 338°
2026-04-30 20:05 34.74474 -71.08218 37823 ft 464 kts 338°
2026-04-30 20:05 34.84010 -71.10465 37827 ft 465 kts 338°
2026-04-30 20:06 34.90358 -71.11964 37827 ft 466 kts 338°
2026-04-30 20:06 34.96752 -71.13475 37829 ft 467 kts 338°
2026-04-30 20:07 35.03153 -71.14991 37827 ft 468 kts 338°
2026-04-30 20:08 35.12730 -71.17263 37825 ft 470 kts 338°
2026-04-30 20:08 35.19178 -71.18798 37825 ft 472 kts 338°
2026-04-30 20:09 35.25637 -71.20335 37822 ft 473 kts 339°
2026-04-30 20:09 35.35314 -71.22644 37821 ft 474 kts 339°
2026-04-30 20:10 35.45072 -71.24978 37823 ft 476 kts 339°
2026-04-30 20:11 35.54833 -71.27320 37823 ft 478 kts 339°
2026-04-30 20:11 35.61362 -71.28889 37823 ft 480 kts 340°
2026-04-30 20:12 35.71191 -71.31256 37809 ft 482 kts 340°
2026-04-30 20:13 35.77798 -71.32850 37826 ft 483 kts 340°
2026-04-30 20:13 35.84392 -71.34444 37819 ft 485 kts 340°
2026-04-30 20:14 35.91022 -71.36048 37813 ft 486 kts 340°
2026-04-30 20:14 35.97671 -71.37662 37813 ft 486 kts 340°
2026-04-30 20:15 36.04316 -71.39275 37815 ft 486 kts 340°
2026-04-30 20:15 36.10944 -71.40889 37814 ft 486 kts 340°
2026-04-30 20:16 36.17556 -71.42501 37817 ft 487 kts 341°
2026-04-30 20:16 36.24227 -71.44130 37819 ft 487 kts 341°
2026-04-30 20:17 36.30882 -71.45758 37813 ft 488 kts 341°
2026-04-30 20:17 36.37516 -71.47384 37808 ft 488 kts 341°
2026-04-30 20:18 36.44164 -71.49016 37815 ft 487 kts 341°
2026-04-30 20:18 36.50832 -71.50656 37816 ft 488 kts 341°
2026-04-30 20:19 36.57506 -71.52300 37819 ft 489 kts 341°
2026-04-30 20:19 36.64195 -71.53952 37815 ft 490 kts 341°
2026-04-30 20:20 36.70876 -71.55603 37819 ft 491 kts 341°
2026-04-30 20:20 36.77551 -71.57256 37815 ft 491 kts 341°
2026-04-30 20:21 36.84286 -71.58927 37815 ft 491 kts 341°
2026-04-30 20:21 36.90955 -71.60585 37821 ft 492 kts 341°
2026-04-30 20:22 36.97684 -71.62261 37822 ft 493 kts 341°
2026-04-30 20:22 37.04431 -71.63944 37819 ft 494 kts 341°
2026-04-30 20:23 37.11146 -71.65622 37823 ft 495 kts 341°
2026-04-30 20:23 37.17912 -71.67316 37821 ft 496 kts 341°
2026-04-30 20:24 37.24698 -71.69018 37826 ft 496 kts 341°
2026-04-30 20:24 37.31486 -71.70724 37825 ft 497 kts 341°
2026-04-30 20:25 37.41656 -71.73285 37831 ft 499 kts 341°
2026-04-30 20:26 37.51857 -71.75861 37828 ft 499 kts 341°
2026-04-30 20:26 37.62065 -71.78447 37827 ft 500 kts 341°
2026-04-30 20:27 37.75721 -71.81917 37829 ft 501 kts 341°
2026-04-30 20:28 37.88301 -71.85125 37833 ft 502 kts 341°
2026-04-30 20:30 38.05422 -71.89508 37830 ft 503 kts 340°
2026-04-30 20:31 38.26018 -71.94816 37834 ft 504 kts 339°
2026-04-30 20:32 38.35604 -71.99497 37832 ft 492 kts 328°
2026-04-30 20:32 38.41881 -72.03007 37827 ft 491 kts 328°
2026-04-30 20:33 38.51264 -72.08240 37827 ft 491 kts 328°
2026-04-30 20:34 38.60672 -72.13513 37829 ft 492 kts 328°
2026-04-30 20:34 38.66905 -72.17009 37680 ft 488 kts 328°
2026-04-30 20:35 38.70027 -72.18764 37036 ft 488 kts 328°
2026-04-30 20:35 38.73144 -72.20522 36241 ft 490 kts 328°
2026-04-30 20:35 38.79416 -72.24058 34522 ft 498 kts 328°
2026-04-30 20:36 38.82597 -72.25852 33635 ft 501 kts 328°
2026-04-30 20:36 38.85803 -72.27662 32711 ft 503 kts 327°
2026-04-30 20:36 38.92193 -72.31274 31047 ft 500 kts 327°
2026-04-30 20:37 38.95379 -72.33081 30167 ft 499 kts 327°
2026-04-30 20:37 38.98517 -72.34864 29260 ft 498 kts 327°
2026-04-30 20:37 39.01671 -72.36652 28408 ft 494 kts 328°
2026-04-30 20:37 39.04816 -72.38436 27560 ft 489 kts 328°
2026-04-30 20:38 39.07929 -72.40207 26724 ft 484 kts 328°
2026-04-30 20:38 39.11003 -72.41959 25930 ft 480 kts 329°
2026-04-30 20:38 39.14007 -72.43671 25147 ft 475 kts 329°
2026-04-30 20:39 39.20015 -72.47098 23569 ft 461 kts 330°
2026-04-30 20:39 39.22877 -72.48723 22809 ft 439 kts 330°
2026-04-30 20:39 39.25656 -72.50317 22091 ft 433 kts 330°
2026-04-30 20:40 39.31104 -72.53447 20685 ft 424 kts 330°
2026-04-30 20:40 39.33791 -72.54983 20000 ft 420 kts 330°
2026-04-30 20:40 39.36432 -72.56499 19318 ft 419 kts 330°
2026-04-30 20:41 39.41775 -72.59574 17910 ft 418 kts 330°
2026-04-30 20:41 39.44408 -72.61082 17401 ft 408 kts 330°
2026-04-30 20:41 39.46952 -72.62545 16763 ft 399 kts 330°
2026-04-30 20:41 39.49487 -72.64010 16127 ft 402 kts 329°
2026-04-30 20:42 39.52081 -72.65520 15437 ft 411 kts 330°
2026-04-30 20:42 39.54696 -72.67022 14753 ft 408 kts 330°
2026-04-30 20:42 39.59781 -72.69949 13427 ft 394 kts 329°
2026-04-30 20:43 39.62268 -72.71396 12789 ft 386 kts 329°
2026-04-30 20:43 39.64672 -72.72790 12193 ft 378 kts 330°
2026-04-30 20:43 39.67054 -72.74168 11607 ft 371 kts 330°
2026-04-30 20:44 39.71651 -72.76830 10764 ft 337 kts 330°
2026-04-30 20:44 39.73656 -72.77981 10633 ft 299 kts 329°
2026-04-30 20:44 39.77279 -72.80106 10420 ft 281 kts 329°
2026-04-30 20:45 39.80724 -72.82615 10136 ft 278 kts 308°
2026-04-30 20:45 39.81814 -72.84623 9932 ft 267 kts 290°
2026-04-30 20:45 39.82311 -72.86892 9730 ft 260 kts 273°
2026-04-30 20:46 39.82366 -72.93924 9026 ft 258 kts 268°
2026-04-30 20:46 39.82369 -72.96234 8811 ft 258 kts 269°
2026-04-30 20:47 39.82378 -73.00899 8371 ft 257 kts 269°
2026-04-30 20:47 39.82382 -73.03222 8147 ft 256 kts 269°
2026-04-30 20:48 39.82388 -73.07829 8027 ft 257 kts 269°
2026-04-30 20:48 39.82390 -73.10142 8034 ft 256 kts 269°
2026-04-30 20:48 39.82391 -73.12458 8032 ft 256 kts 269°
2026-04-30 20:48 39.82392 -73.14785 8031 ft 256 kts 269°
2026-04-30 20:49 39.82393 -73.17071 8032 ft 256 kts 269°
2026-04-30 20:49 39.82393 -73.19386 8034 ft 256 kts 269°
2026-04-30 20:49 39.82393 -73.21710 8029 ft 256 kts 269°
2026-04-30 20:50 39.82390 -73.26326 8034 ft 256 kts 269°
2026-04-30 20:50 39.82389 -73.28651 8033 ft 256 kts 269°
2026-04-30 20:50 39.82387 -73.30979 8032 ft 256 kts 269°
2026-04-30 20:50 39.82384 -73.33294 8027 ft 256 kts 269°
2026-04-30 20:51 39.82381 -73.35585 8035 ft 256 kts 269°
2026-04-30 20:51 39.82374 -73.40225 8031 ft 256 kts 269°
2026-04-30 20:51 39.82369 -73.42547 8033 ft 256 kts 269°
2026-04-30 20:52 39.82364 -73.44865 8032 ft 256 kts 269°
2026-04-30 20:52 39.82360 -73.47195 8029 ft 256 kts 269°
2026-04-30 20:52 39.82347 -73.51812 8022 ft 256 kts 269°
2026-04-30 20:53 39.82340 -73.54141 8023 ft 257 kts 269°
2026-04-30 20:53 39.82333 -73.56465 8033 ft 256 kts 269°
2026-04-30 20:53 39.82326 -73.58761 8025 ft 256 kts 269°
2026-04-30 20:54 39.82309 -73.63406 8022 ft 256 kts 269°
2026-04-30 20:54 39.82300 -73.65725 8023 ft 257 kts 269°
2026-04-30 20:54 39.82290 -73.68050 8022 ft 256 kts 269°
2026-04-30 20:55 39.82270 -73.72668 8026 ft 256 kts 269°
2026-04-30 20:55 39.82260 -73.74992 8024 ft 256 kts 269°
2026-04-30 20:55 39.82248 -73.77322 8024 ft 257 kts 269°
2026-04-30 20:56 39.82224 -73.81940 8035 ft 256 kts 269°
2026-04-30 20:56 39.82212 -73.84263 8020 ft 256 kts 269°
2026-04-30 20:56 39.82185 -73.88886 8020 ft 256 kts 269°
2026-04-30 20:57 39.82170 -73.91215 8024 ft 257 kts 269°
2026-04-30 20:57 39.82156 -73.93537 8023 ft 257 kts 269°
2026-04-30 20:57 39.82141 -73.95874 8022 ft 258 kts 269°
2026-04-30 20:58 39.82109 -74.00528 8021 ft 259 kts 269°
2026-04-30 20:58 39.82093 -74.02861 8018 ft 258 kts 269°
2026-04-30 20:58 39.82076 -74.05206 8019 ft 258 kts 269°
2026-04-30 20:58 39.82058 -74.07554 8017 ft 259 kts 269°
2026-04-30 20:59 39.82022 -74.12230 8020 ft 260 kts 269°
2026-04-30 20:59 39.82003 -74.14578 8029 ft 259 kts 269°
2026-04-30 21:00 39.81964 -74.19288 8027 ft 261 kts 269°
2026-04-30 21:00 39.81922 -74.23987 8015 ft 260 kts 269°
2026-04-30 21:01 39.81879 -74.28705 8014 ft 262 kts 269°
2026-04-30 21:01 39.81857 -74.31045 8022 ft 260 kts 269°
2026-04-30 21:01 39.81810 -74.35779 8023 ft 261 kts 269°
2026-04-30 21:02 39.81787 -74.38114 8035 ft 262 kts 269°
2026-04-30 21:02 39.81787 -74.40484 8025 ft 260 kts 275°
2026-04-30 21:02 39.82301 -74.42729 8021 ft 262 kts 296°
2026-04-30 21:02 39.83454 -74.44585 8028 ft 266 kts 318°
2026-04-30 21:03 39.84968 -74.45949 8023 ft 270 kts 323°
2026-04-30 21:03 39.86543 -74.47291 8030 ft 271 kts 323°
2026-04-30 21:03 39.88113 -74.48620 8027 ft 269 kts 323°
2026-04-30 21:03 39.89681 -74.49964 8030 ft 269 kts 323°
2026-04-30 21:04 39.91248 -74.51313 8027 ft 269 kts 323°
2026-04-30 21:04 39.92794 -74.52641 8029 ft 270 kts 323°
2026-04-30 21:04 39.95944 -74.55345 8032 ft 269 kts 323°
2026-04-30 21:05 39.97512 -74.56692 8026 ft 269 kts 323°
2026-04-30 21:05 39.99070 -74.58024 8024 ft 270 kts 325°
2026-04-30 21:05 40.00861 -74.58842 8018 ft 278 kts 349°
2026-04-30 21:05 40.02782 -74.58656 8024 ft 286 kts 13°
2026-04-30 21:06 40.04658 -74.57738 8028 ft 287 kts 18°
2026-04-30 21:06 40.06505 -74.56750 7845 ft 285 kts 19°
2026-04-30 21:06 40.08324 -74.55774 7581 ft 285 kts 18°
2026-04-30 21:06 40.10162 -74.54808 7353 ft 284 kts 18°
2026-04-30 21:07 40.12011 -74.53843 7107 ft 284 kts 18°
2026-04-30 21:07 40.13821 -74.52890 6894 ft 283 kts 18°
2026-04-30 21:07 40.15648 -74.51925 6671 ft 282 kts 18°
2026-04-30 21:07 40.17469 -74.50965 6452 ft 281 kts 18°
2026-04-30 21:08 40.19342 -74.50387 6214 ft 273 kts 356°
2026-04-30 21:08 40.21220 -74.50612 6026 ft 269 kts 349°
2026-04-30 21:08 40.23051 -74.50949 6025 ft 270 kts 348°
2026-04-30 21:08 40.24911 -74.51316 6026 ft 269 kts 348°
2026-04-30 21:09 40.26768 -74.51688 6022 ft 270 kts 348°
2026-04-30 21:09 40.28624 -74.52063 6035 ft 268 kts 348°
2026-04-30 21:09 40.30485 -74.52438 6021 ft 269 kts 348°
2026-04-30 21:09 40.32318 -74.52809 6024 ft 270 kts 347°
2026-04-30 21:10 40.34180 -74.53185 6021 ft 270 kts 347°
2026-04-30 21:10 40.36040 -74.53560 6021 ft 269 kts 348°
2026-04-30 21:10 40.37868 -74.53932 6022 ft 268 kts 348°
2026-04-30 21:10 40.39721 -74.54310 6022 ft 269 kts 348°
2026-04-30 21:11 40.41573 -74.54688 6020 ft 269 kts 348°
2026-04-30 21:11 40.43420 -74.55069 6018 ft 269 kts 348°
2026-04-30 21:11 40.45268 -74.55455 6017 ft 269 kts 348°
2026-04-30 21:11 40.47093 -74.55841 6022 ft 269 kts 348°
2026-04-30 21:12 40.48950 -74.56235 6017 ft 268 kts 348°
2026-04-30 21:12 40.50779 -74.56625 6019 ft 269 kts 348°
2026-04-30 21:12 40.52636 -74.56941 6016 ft 270 kts 354°
2026-04-30 21:12 40.54523 -74.56997 6017 ft 271 kts 357°
2026-04-30 21:13 40.56401 -74.56988 5914 ft 267 kts 358°
2026-04-30 21:13 40.58236 -74.56967 5525 ft 267 kts 358°
2026-04-30 21:13 40.60088 -74.56947 5187 ft 265 kts 358°
2026-04-30 21:13 40.61936 -74.56936 4875 ft 263 kts 358°
2026-04-30 21:14 40.63768 -74.56930 4584 ft 261 kts 358°
2026-04-30 21:14 40.65567 -74.56932 4276 ft 260 kts 358°
2026-04-30 21:14 40.67380 -74.56940 3978 ft 258 kts 358°
2026-04-30 21:14 40.69142 -74.56958 3668 ft 255 kts 358°
2026-04-30 21:15 40.70914 -74.56979 3318 ft 253 kts 358°
2026-04-30 21:15 40.72666 -74.56980 3039 ft 248 kts
2026-04-30 21:15 40.74294 -74.56141 3013 ft 257 kts 31°
2026-04-30 21:15 40.75724 -74.54712 3023 ft 257 kts 36°
2026-04-30 21:16 40.77104 -74.53204 3019 ft 258 kts 38°
2026-04-30 21:16 40.78477 -74.51694 3020 ft 257 kts 38°
2026-04-30 21:16 40.79836 -74.50194 3021 ft 256 kts 38°
2026-04-30 21:16 40.81200 -74.48683 3022 ft 257 kts 38°
2026-04-30 21:17 40.82576 -74.47157 3024 ft 257 kts 37°
2026-04-30 21:17 40.83955 -74.45632 3021 ft 258 kts 38°
2026-04-30 21:17 40.84864 -74.44626 3020 ft 257 kts 37°
2026-04-30 21:17 40.86237 -74.43103 3012 ft 256 kts 38°
2026-04-30 21:18 40.88047 -74.41077 3025 ft 255 kts 40°
2026-04-30 21:18 40.88802 -74.39805 3013 ft 263 kts 58°
2026-04-30 21:18 40.89528 -74.37630 3014 ft 262 kts 66°
2026-04-30 21:18 40.90174 -74.35364 3012 ft 260 kts 68°
2026-04-30 21:19 40.90776 -74.33194 3009 ft 242 kts 68°
2026-04-30 21:19 40.91327 -74.31173 3047 ft 225 kts 68°
2026-04-30 21:19 40.91840 -74.29270 3030 ft 219 kts 68°
2026-04-30 21:19 40.92360 -74.27343 3044 ft 221 kts 68°
2026-04-30 21:20 40.92873 -74.25425 3026 ft 225 kts 68°
2026-04-30 21:20 40.93387 -74.23509 3027 ft 224 kts 67°
2026-04-30 21:20 40.93867 -74.21553 3019 ft 224 kts 75°
2026-04-30 21:20 40.93626 -74.19536 2992 ft 226 kts 111°
2026-04-30 21:21 40.92889 -74.17655 3026 ft 231 kts 117°
2026-04-30 21:21 40.92156 -74.15883 3008 ft 206 kts 117°
2026-04-30 21:21 40.90862 -74.12758 2997 ft 195 kts 117°
2026-04-30 21:22 40.90196 -74.11152 2994 ft 197 kts 117°
2026-04-30 21:22 40.86947 -74.08185 2990 ft 195 kts 168°
2026-04-30 21:23 40.85596 -74.07741 3003 ft 196 kts 167°
2026-04-30 21:23 40.84258 -74.07325 2998 ft 198 kts 172°
2026-04-30 21:23 40.81780 -74.08486 2647 ft 190 kts 209°
2026-04-30 21:24 40.80615 -74.09230 2385 ft 176 kts 209°
2026-04-30 21:24 40.79576 -74.09893 2152 ft 156 kts 209°
2026-04-30 21:24 40.78614 -74.10511 1947 ft 154 kts 210°
2026-04-30 21:24 40.77661 -74.11124 1737 ft 151 kts 210°
2026-04-30 21:25 40.75767 -74.12327 1342 ft 152 kts 209°
2026-04-30 21:25 40.74846 -74.12918 1137 ft 149 kts 208°
2026-04-30 21:25 40.73914 -74.13503 940 ft 147 kts 208°
2026-04-30 21:26 40.72057 -74.14684 539 ft 151 kts 209°
2026-04-30 21:26 40.71127 -74.15284 358 ft 154 kts 209°
2026-04-30 21:27 40.69432 -74.16363 31 ft 100 kts 206°
2026-04-30 21:27 40.69040 -74.16611 28 ft 28 kts 205°
2026-04-30 21:27 40.68975 -74.16653 28 ft 6 kts 207°
2026-04-30 21:28 40.68788 -74.16812 27 ft 18 kts 224°
2026-04-30 21:28 40.68713 -74.16932 28 ft 16 kts 234°
2026-04-30 21:28 40.68627 -74.17124 28 ft 6 kts 263°
2026-04-30 21:29 40.68637 -74.17168 29 ft 6 kts 288°
2026-04-30 21:29 40.68705 -74.17370 29 ft 9 kts 296°
2026-04-30 21:30 40.68791 -74.17421 28 ft 9 kts 12°
2026-04-30 21:31 40.69019 -74.17282 27 ft 12 kts 24°
2026-04-30 21:31 40.69151 -74.17200 28 ft 9 kts 27°
2026-04-30 21:32 40.69256 -74.17133 28 ft 7 kts 26°
2026-04-30 21:32 40.69301 -74.17105 28 ft 7 kts 22°
2026-04-30 21:32 40.69343 -74.17086 28 ft 6 kts 17°
2026-04-30 21:32 40.69382 -74.17075 28 ft 5 kts
2026-04-30 21:33 40.69420 -74.17072 28 ft 6 kts
2026-04-30 21:33 40.69511 -74.17079 28 ft 9 kts 352°
2026-04-30 21:33 40.69575 -74.17097 28 ft 10 kts 343°
2026-04-30 21:34 40.69649 -74.17137 28 ft 13 kts 337°
2026-04-30 21:34 40.69777 -74.17248 28 ft 9 kts 315°
2026-04-30 21:34 40.69815 -74.17300 28 ft 7 kts 312°
2026-04-30 21:35 40.69843 -74.17345 28 ft 6 kts 309°
2026-04-30 21:35 40.69862 -74.17382 28 ft 4 kts 301°
2026-04-30 21:35 40.69875 -74.17414 28 ft 4 kts 295°
2026-04-30 21:35 40.69890 -74.17472 28 ft 11 kts 287°
2026-04-30 21:36 40.69881 -74.17595 28 ft 13 kts 235°
2026-04-30 21:36 40.69812 -74.17590 28 ft 3 kts 136°
2026-04-30 21:37 40.69793 -74.17557 28 ft 0 kts 143°